EW2804 Weather Reports


Display with metric or nautical units.
time (UTC)temp
F
wind
direction
speed
MPH
gust
MPH
rain 1hr
in
rain 24hr
in
rain mn
in
humidity
%
barometer
mb
20260506232049 65 55 4.0 13.0 0.00 0.03 0.03 65 1013.0
20260506231052 65 82 3.0 10.0 0.00 0.03 0.03 65 1013.1
20260506230025 65 32 3.0 10.0 0.00 0.03 0.03 65 1012.8
20260506224951 66 65 3.0 9.0 0.00 0.03 0.03 65 1012.7
20260506223946 66 0 2.0 9.0 0.00 0.03 0.03 64 1012.6
20260506222937 66 46 3.0 9.0 0.00 0.03 0.03 64 1012.4
20260506215725 66 34 3.0 12.0 0.00 0.03 0.03 64 1012.5
20260506214701 65 39 3.0 12.0 0.00 0.03 0.03 63 1012.5
20260506213640 65 53 3.0 10.0 0.00 0.03 0.03 65 1012.5
20260506212636 65 48 3.0 10.0 0.00 0.03 0.03 65 1012.7
20260506211615 64 18 2.0 8.0 0.00 0.03 0.03 67 1013.0
20260506205441 64 50 1.0 6.0 0.00 0.03 0.03 68 1012.6
20260506203317 63 28 3.0 11.0 0.00 0.03 0.03 67 1012.8
20260506202306 63 63 2.0 6.0 0.00 0.03 0.03 68 1013.0
20260506201237 63 37 1.0 6.0 0.00 0.03 0.03 67 1013.4
20260506200225 63 90 2.0 6.0 0.00 0.03 0.03 67 1013.5
20260506195228 62 49 1.0 7.0 0.00 0.03 0.03 69 1013.6
20260506194238 61 0 2.0 7.0 0.00 0.03 0.03 70 1013.8
20260506193221 61 114 0.0 3.0 0.00 0.03 0.03 69 1013.8
20260506192202 60 22 1.0 4.0 0.00 0.03 0.03 69 1013.8
20260506191134 60 5 1.0 11.0 0.00 0.03 0.03 68 1013.8
20260506184937 60 74 3.0 9.0 0.00 0.03 0.03 71 1013.1
20260506183912 59 279 3.0 10.0 0.00 0.03 0.03 73 1013.0
20260506182910 58 40 3.0 10.0 0.00 0.03 0.03 72 1013.0
20260506181903 58 55 3.0 9.0 0.00 0.03 0.03 72 1013.2
20260506175729 57 58 3.0 9.0 0.00 0.02 0.02 75 1013.3
20260506174658 56 0 3.0 10.0 0.00 0.02 0.02 75 1013.3
20260506173652 56 0 3.0 10.0 0.00 0.02 0.02 76 1013.1
20260506172628 55 0 2.0 9.0 0.00 0.02 0.02 76 1013.1
20260506170519 55 55 2.0 9.0 0.00 0.02 0.02 78 1013.6
20260506165516 55 0 1.0 9.0 0.00 0.02 0.02 78 1013.9
20260506164454 54 0 2.0 10.0 0.00 0.02 0.02 79 1013.9
20260506162251 54 0 3.0 9.0 0.00 0.02 0.02 80 1013.3
20260506161305 54 0 1.0 8.0 0.00 0.02 0.02 80 1013.6
20260506160323 54 0 2.0 7.0 0.00 0.02 0.02 80 1013.9
20260506155342 54 0 1.0 11.0 0.00 0.02 0.02 81 1013.5
20260506153224 54 0 0.0 3.0 0.04 0.02 0.02 81 1014.2
20260506151029 54 0 0.0 3.0 0.00 0.00 0.00 79 1015.1
20260506145957 54 0 1.0 5.0 0.00 0.00 0.00 78 1014.4
20260506144956 53 0 1.0 8.0 0.00 0.00 0.00 78 1014.0
20260506144017 54 0 2.0 8.0 0.00 0.00 0.00 78 1013.1
20260506142954 54 0 1.0 7.0 0.00 0.00 0.00 77 1013.8
20260506141939 54 0 2.0 7.0 0.00 0.00 0.00 78 1013.9
20260506140942 53 0 2.0 8.0 0.00 0.00 0.00 77 1013.6
20260506135920 53 0 2.0 8.0 0.00 0.00 0.00 77 1013.9
20260506134940 53 0 3.0 10.0 0.00 0.00 0.00 77 1013.1
20260506133934 53 0 4.0 10.0 0.00 0.00 0.00 77 1012.7
20260506132926 53 0 2.0 7.0 0.00 0.00 0.00 77 1012.8
20260506131931 53 0 2.0 7.0 0.00 0.00 0.00 77 1012.8
20260506130909 53 0 3.0 9.0 0.00 0.00 0.00 77 1012.4
20260506125908 53 0 3.0 12.0 0.00 0.00 0.00 77 1012.5
20260506124914 53 0 2.0 12.0 0.00 0.00 0.00 78 1012.2
20260506123907 53 0 2.0 7.0 0.00 0.00 0.00 78 1012.3
20260506122924 53 0 2.0 5.0 0.00 0.00 0.00 78 1012.2
20260506121932 53 0 2.0 8.0 0.00 0.00 0.00 78 1012.1
20260506120908 53 0 2.0 10.0 0.00 0.00 0.00 78 1012.0
20260506115900 53 0 3.0 10.0 0.00 0.00 0.00 77 1012.0
20260506114849 53 0 3.0 9.0 0.00 0.00 0.00 76 1011.7
20260506113835 53 0 2.0 9.0 0.00 0.00 0.00 75 1011.6
20260506111712 54 0 3.0 11.0 0.00 0.00 0.00 72 1011.1
20260506110643 55 0 2.0 11.0 0.00 0.00 0.00 72 1011.0
20260506105652 55 46 3.0 10.0 0.00 0.00 0.00 71 1010.9
20260506104659 55 0 3.0 9.0 0.00 0.00 0.00 71 1010.5
20260506103715 56 331 1.0 11.0 0.00 0.00 0.00 70 1010.5
20260506102731 56 57 3.0 11.0 0.00 0.00 0.00 70 1010.4
20260506101701 56 24 2.0 7.0 0.00 0.00 0.00 70 1010.2
20260506100647 56 345 2.0 7.0 0.00 0.00 0.00 70 1010.1
20260506095635 56 320 2.0 6.0 0.00 0.00 0.00 70 1009.8
20260506094628 56 350 1.0 4.0 0.00 0.00 0.00 70 1009.7
20260506093556 57 9 1.0 8.0 0.00 0.00 0.00 70 1009.7
20260506092548 57 346 2.0 8.0 0.00 0.00 0.00 71 1009.4
20260506090509 57 5 1.0 6.0 0.00 0.00 0.00 71 1009.3
20260506084415 57 5 2.0 9.0 0.00 0.00 0.00 70 1009.0
20260506083344 57 319 2.0 9.0 0.00 0.00 0.00 71 1009.1
20260506082318 58 321 2.0 7.0 0.00 0.00 0.00 71 1009.2
20260506081330 58 24 2.0 6.0 0.00 0.00 0.00 72 1008.9
20260506080326 58 37 2.0 8.0 0.00 0.00 0.00 72 1008.9
20260506072127 58 49 2.0 6.0 0.00 0.00 0.00 72 1008.2
20260506071112 58 53 1.0 10.0 0.00 0.00 0.00 72 1008.3
20260506062052 59 49 2.0 8.0 0.00 0.00 0.00 71 1008.6
20260506061115 59 11 2.0 8.0 0.00 0.00 0.00 72 1008.4
20260506050911 60 341 2.0 8.0 0.00 0.00 0.00 74 1008.6
20260506044824 61 306 2.0 8.0 0.00 0.00 0.00 74 1008.3
20260506043839 61 332 2.0 7.0 0.00 0.00 0.00 74 1008.4
20260506042810 61 40 2.0 8.0 0.00 0.00 0.00 74 1008.5
20260506041816 62 26 3.0 8.0 0.00 0.00 0.00 73 1008.3
20260506040754 62 314 2.0 9.0 0.00 0.00 0.00 74 1008.2
20260506035747 62 346 2.0 9.0 0.00 0.00 0.00 74 1008.1
20260506034713 63 5 2.0 8.0 0.00 0.00 0.00 73 1007.8
20260506032524 64 0 2.0 8.0 0.00 0.00 0.00 73 1007.4
20260506031505 64 13 3.0 9.0 0.00 0.00 0.00 73 1007.2
20260506030441 65 19 2.0 10.0 0.00 0.00 0.00 72 1007.3
20260506025453 65 44 2.0 10.0 0.00 0.00 0.00 72 1007.1
20260506024502 65 339 2.0 8.0 0.00 0.00 0.00 71 1007.0
20260506022355 67 9 3.0 9.0 0.00 0.00 0.00 70 1006.3
20260506021325 68 9 1.0 8.0 0.00 0.00 0.00 71 1005.9
20260506020328 68 35 1.0 6.0 0.00 0.00 0.00 71 1005.7
20260506015330 68 5 1.0 5.0 0.00 0.00 0.00 70 1005.3
20260506014252 68 13 1.0 5.0 0.00 0.00 0.00 69 1005.2
20260506013238 68 30 1.0 4.0 0.00 0.00 0.00 68 1005.3
20260506012218 68 37 1.0 11.0 0.00 0.00 0.00 68 1005.0
20260506011202 69 34 3.0 11.0 0.00 0.00 0.00 67 1004.9
20260506010131 69 32 1.0 9.0 0.00 0.00 0.00 67 1004.4
20260506005109 70 344 3.0 10.0 0.00 0.00 0.00 66 1004.4
20260506004100 71 0 3.0 10.0 0.00 0.00 0.00 66 1003.8
20260506003119 72 13 2.0 9.0 0.00 0.00 0.00 65 1003.7
20260506002125 72 47 2.0 9.0 0.00 0.00 0.00 65 1003.5
20260506001056 73 323 3.0 8.0 0.00 0.00 0.00 64 1003.6
20260505235053 74 30 3.0 11.0 0.00 0.00 0.00 63 1003.6
20260505232928 76 34 3.0 10.0 0.00 0.00 0.00 62 1003.4